BAW245 EGLL-SAEZ

Flight info

Callsign BAW245
Flight time N/A
Altitude 31000
Route GOGSI N621 SAM M195 LORKU DCT EBOMO DCT KORUL DCT RIPEL/N0488F330 DCT KOMUT/M084F320 DCT 34N020W DCT SORAD/M084F340 DCT ULTEM/N0499F340 DCT NATAS DCT ARAGO DCT UKEDI DCT DAKAP/N0490F360 UZ51 PULUV UZ5 KUKOL UM532 ROMIK/N0484F380 UM532 CUARA UL324 KUKEN KUKEN6B
Aircraft B77W/H-SDE1E2E3FGHIJ2J3J4J5M1RWXY/LB1D1

Departure

Time N/A
Airport London Heathrow Airport (EGLL)

Arrival

Time 2026-04-28 01:12
Airport Ezeiza International Airport - Ministro Pistarini (SAEZ)
Time Latitude Longitude Altitude Speed Heading
2026-04-28 00:38 -33.01716 -57.66121 31122 ft 438 kts 208°
2026-04-28 00:38 -33.04549 -57.67456 31127 ft 438 kts 208°
2026-04-28 00:39 -33.10187 -57.70116 31127 ft 439 kts 208°
2026-04-28 00:39 -33.13052 -57.71471 31465 ft 442 kts 208°
2026-04-28 00:39 -33.15913 -57.72823 32059 ft 440 kts 208°
2026-04-28 00:40 -33.21563 -57.75492 32118 ft 434 kts 208°
2026-04-28 00:40 -33.27159 -57.78140 32126 ft 431 kts 208°
2026-04-28 00:41 -33.32756 -57.80800 32131 ft 432 kts 208°
2026-04-28 00:41 -33.38313 -57.83442 32124 ft 433 kts 208°
2026-04-28 00:42 -33.43916 -57.86107 32124 ft 433 kts 208°
2026-04-28 00:42 -33.49517 -57.88775 32124 ft 432 kts 208°
2026-04-28 00:43 -33.55075 -57.91424 32130 ft 432 kts 208°
2026-04-28 00:43 -33.60683 -57.94088 32117 ft 432 kts 208°
2026-04-28 00:44 -33.66273 -57.96747 32115 ft 431 kts 208°
2026-04-28 00:44 -33.71845 -57.99402 32117 ft 431 kts 208°
2026-04-28 00:45 -33.77384 -58.02047 32116 ft 431 kts 208°
2026-04-28 00:45 -33.82965 -58.04716 32120 ft 430 kts 208°
2026-04-28 00:46 -33.88533 -58.07381 32118 ft 430 kts 208°
2026-04-28 00:46 -33.94102 -58.10052 32113 ft 430 kts 208°
2026-04-28 00:47 -33.99637 -58.12709 32113 ft 430 kts 208°
2026-04-28 00:47 -34.05197 -58.15383 32113 ft 430 kts 209°
2026-04-28 00:48 -34.10727 -58.18046 32113 ft 430 kts 209°
2026-04-28 00:48 -34.16290 -58.20726 32005 ft 424 kts 209°
2026-04-28 00:48 -34.18975 -58.22019 31610 ft 417 kts 209°
2026-04-28 00:49 -34.21674 -58.23338 30730 ft 419 kts 209°
2026-04-28 00:49 -34.24398 -58.24687 29769 ft 424 kts 209°
2026-04-28 00:49 -34.26215 -58.25589 29165 ft 425 kts 209°
2026-04-28 00:49 -34.28954 -58.26947 28326 ft 425 kts 208°
2026-04-28 00:50 -34.31681 -58.28296 27637 ft 422 kts 208°
2026-04-28 00:50 -34.34387 -58.29632 27021 ft 418 kts 208°
2026-04-28 00:50 -34.37072 -58.30959 26399 ft 414 kts 208°
2026-04-28 00:50 -34.39705 -58.32261 25774 ft 412 kts 208°
2026-04-28 00:51 -34.42349 -58.33571 25152 ft 410 kts 208°
2026-04-28 00:51 -34.44982 -58.34877 24550 ft 407 kts 208°
2026-04-28 00:51 -34.47553 -58.36148 23693 ft 393 kts 208°
2026-04-28 00:51 -34.50074 -58.37397 22373 ft 389 kts 208°
2026-04-28 00:52 -34.52568 -58.38637 21070 ft 386 kts 208°
2026-04-28 00:52 -34.55041 -58.39868 19845 ft 382 kts 207°
2026-04-28 00:52 -34.57483 -58.41083 18726 ft 377 kts 207°
2026-04-28 00:52 -34.59899 -58.42286 17576 ft 371 kts 207°
2026-04-28 00:53 -34.62238 -58.43450 16481 ft 364 kts 207°
2026-04-28 00:53 -34.64563 -58.44609 15429 ft 358 kts 207°
2026-04-28 00:53 -34.66856 -58.45753 14401 ft 352 kts 206°
2026-04-28 00:53 -34.69114 -58.46881 13336 ft 347 kts 206°
2026-04-28 00:54 -34.71302 -58.47974 12256 ft 341 kts 206°
2026-04-28 00:54 -34.73452 -58.49047 11664 ft 324 kts 206°
2026-04-28 00:54 -34.75483 -58.50060 11130 ft 308 kts 206°
2026-04-28 00:54 -34.77416 -58.51026 10837 ft 290 kts 206°
2026-04-28 00:55 -34.79048 -58.51841 10711 ft 270 kts 206°
2026-04-28 00:55 -34.80720 -58.52675 10579 ft 248 kts 206°
2026-04-28 00:55 -34.82256 -58.53441 10462 ft 231 kts 207°
2026-04-28 00:55 -34.83772 -58.54209 10443 ft 250 kts 206°
2026-04-28 00:56 -34.85423 -58.55053 10399 ft 259 kts 206°
2026-04-28 00:56 -34.87064 -58.55893 10356 ft 249 kts 206°
2026-04-28 00:56 -34.88620 -58.56662 10320 ft 236 kts 207°
2026-04-28 00:56 -34.89987 -58.57829 10331 ft 248 kts 233°
2026-04-28 00:57 -34.90707 -58.59736 10331 ft 250 kts 259°
2026-04-28 00:57 -34.90807 -58.61792 10281 ft 241 kts 268°
2026-04-28 00:57 -34.90758 -58.63799 10183 ft 235 kts 270°
2026-04-28 00:57 -34.90685 -58.65857 10134 ft 249 kts 270°
2026-04-28 00:58 -34.90607 -58.67986 9808 ft 252 kts 270°
2026-04-28 00:58 -34.90539 -58.70129 9196 ft 252 kts 266°
2026-04-28 00:58 -34.90979 -58.72160 8486 ft 250 kts 239°
2026-04-28 00:58 -34.92201 -58.73635 7845 ft 251 kts 211°
2026-04-28 00:59 -34.93877 -58.74182 7188 ft 258 kts 182°
2026-04-28 00:59 -34.95626 -58.73652 6540 ft 265 kts 154°
2026-04-28 00:59 -34.96994 -58.72138 5886 ft 270 kts 124°
2026-04-28 00:59 -34.97746 -58.70048 5348 ft 268 kts 103°
2026-04-28 01:00 -34.98044 -58.68142 5212 ft 275 kts 101°
2026-04-28 01:00 -34.98381 -58.65840 5086 ft 275 kts 101°
2026-04-28 01:00 -34.98715 -58.63554 5073 ft 271 kts 101°
2026-04-28 01:00 -34.99039 -58.61305 5067 ft 268 kts 101°
2026-04-28 01:01 -34.99360 -58.59062 5076 ft 268 kts 100°
2026-04-28 01:01 -34.99676 -58.56839 5083 ft 270 kts 101°
2026-04-28 01:01 -34.99996 -58.54559 5083 ft 273 kts 100°
2026-04-28 01:01 -35.00315 -58.52275 5083 ft 274 kts 100°
2026-04-28 01:02 -35.00635 -58.49978 5076 ft 275 kts 100°
2026-04-28 01:02 -35.00958 -58.47683 5082 ft 274 kts 100°
2026-04-28 01:02 -35.01282 -58.45395 5077 ft 273 kts 100°
2026-04-28 01:02 -35.01606 -58.43117 5073 ft 272 kts 100°
2026-04-28 01:03 -35.01927 -58.40865 5071 ft 271 kts 100°
2026-04-28 01:03 -35.02111 -58.38604 4910 ft 266 kts 83°
2026-04-28 01:03 -35.01664 -58.36436 4638 ft 264 kts 70°
2026-04-28 01:03 -35.01083 -58.34307 4303 ft 264 kts 70°
2026-04-28 01:04 -35.00496 -58.32175 3987 ft 264 kts 70°
2026-04-28 01:04 -34.99906 -58.30059 3703 ft 263 kts 70°
2026-04-28 01:04 -34.99317 -58.27965 3448 ft 261 kts 70°
2026-04-28 01:04 -34.98720 -58.25881 3145 ft 257 kts 67°
2026-04-28 01:05 -34.97752 -58.24176 3020 ft 245 kts 37°
2026-04-28 01:05 -34.96243 -58.23342 3003 ft 232 kts
2026-04-28 01:05 -34.94667 -58.23548 3009 ft 228 kts 338°
2026-04-28 01:05 -34.93339 -58.24478 3006 ft 222 kts 319°
2026-04-28 01:06 -34.92148 -58.25687 3002 ft 223 kts 317°
2026-04-28 01:06 -34.90966 -58.26918 3001 ft 224 kts 317°
2026-04-28 01:06 -34.89774 -58.28148 3000 ft 224 kts 317°
2026-04-28 01:06 -34.88576 -58.29373 3001 ft 225 kts 317°
2026-04-28 01:07 -34.87378 -58.30592 3004 ft 224 kts 318°
2026-04-28 01:07 -34.86291 -58.31882 2978 ft 207 kts 299°
2026-04-28 01:07 -34.85805 -58.33422 3008 ft 185 kts 282°
2026-04-28 01:07 -34.85536 -58.34889 3016 ft 178 kts 281°
2026-04-28 01:08 -34.85279 -58.36359 3009 ft 176 kts 281°
2026-04-28 01:08 -34.85029 -58.37784 3006 ft 164 kts 281°
2026-04-28 01:08 -34.84808 -58.39036 2979 ft 139 kts 281°
2026-04-28 01:08 -34.84613 -58.40144 2964 ft 135 kts 280°
2026-04-28 01:09 -34.84433 -58.41281 2739 ft 136 kts 279°
2026-04-28 01:09 -34.84250 -58.42394 2425 ft 132 kts 280°
2026-04-28 01:09 -34.84046 -58.43472 2109 ft 128 kts 282°
2026-04-28 01:09 -34.83826 -58.44524 1834 ft 129 kts 281°
2026-04-28 01:10 -34.83627 -58.45585 1567 ft 129 kts 279°
2026-04-28 01:10 -34.83449 -58.46656 1319 ft 129 kts 279°
2026-04-28 01:10 -34.83278 -58.47739 1031 ft 131 kts 279°
2026-04-28 01:10 -34.83095 -58.48816 761 ft 132 kts 282°
2026-04-28 01:11 -34.82888 -58.49911 503 ft 133 kts 283°
2026-04-28 01:11 -34.82686 -58.50999 268 ft 131 kts 282°
2026-04-28 01:11 -34.82497 -58.52080 119 ft 130 kts 283°
2026-04-28 01:11 -34.82304 -58.53117 87 ft 115 kts 282°
2026-04-28 01:12 -34.82165 -58.53885 90 ft 71 kts 282°
2026-04-28 01:12 -34.82094 -58.54288 91 ft 26 kts 282°
2026-04-28 01:12 -34.82069 -58.54432 87 ft 17 kts 282°
2026-04-28 01:12 -34.82008 -58.54527 91 ft 15 kts 355°
2026-04-28 01:13 -34.81905 -58.54461 85 ft 17 kts 34°
2026-04-28 01:13 -34.81774 -58.54275 83 ft 15 kts 97°
2026-04-28 01:13 -34.81783 -58.54142 81 ft 15 kts 94°
2026-04-28 01:14 -34.81780 -58.54012 83 ft 16 kts 69°
2026-04-28 01:14 -34.81723 -58.53897 85 ft 16 kts 58°
2026-04-28 01:14 -34.81655 -58.53819 82 ft 11 kts
2026-04-28 01:14 -34.81579 -58.53834 83 ft 11 kts 352°
2026-04-28 01:15 -34.81515 -58.53849 83 ft 6 kts 349°
2026-04-28 01:15 -34.81514 -58.53849 83 ft 0 kts 349°